Tracking 29892 objects as of 21-Nov-2024
HD Live streaming from Space Station
objects crossing your sky now

RESURS O1 DEB

Track RESURS O1 DEB now!
10-day predictions


NORAD ID: 23347
Int'l Code: 1994-074F
Perigee: 625.2 km
Apogee: 805.1 km
Inclination: 97.9 °
Period: 98.9 minutes
Semi major axis: 7086 km
RCS: 0.08 m2 (small)
Launch date: November 4, 1994
Source: Commonwealth of Independent States (former USSR) (CIS)
Launch site: TYURATAM MISSILE AND SPACE COMPLEX (TTMTR)

Note: This is SATELLITE DEBRIS
Your satellite tracking list
Your tracking list is empty




NASA's NSSDC Master Catalog

Two Line Element Set (TLE):
1 23347U 94074F   24325.22582494  .00003100  00000-0  64964-3 0  9991
2 23347  97.8723  52.4139 0126958 157.0198 231.6840 14.55406611586504
Source of the keplerian elements: AFSPC